User: anonymous   Login
Location: Isola Pescaroli
(45.0500°N, 10.1667°E)
Time: 23:18:10
(UTC+00:00)
Language:

SJ-6B - Orbit

View from above orbital plane
View from above orbital plane
View from above satellite
View from above satellite

Ground track
Ground track

The orbit data is extracted from the following two-line orbital elements,

1 28415U 04035C   21138.15833108 -.00000074  00000-0 -41410-6 0  9995
2 28415  97.5675 181.1986 0049764 291.3965  68.1957 15.07106797914047
Epoch (UTC): 18 May 2021 03:47:59
Eccentricity: 0.0049764
inclination: 97.5675°
perigee height: 510 km
apogee height: 579 km
right ascension of ascending node: 181.1986°
argument of perigee: 291.3965°
revolutions per day: 15.07106797
mean anomaly at epoch: 68.1957°
orbit number at epoch: 91404

The dashed part of the orbit path shows where the satellite is in the earth's shadow,  

DLR